Location: Blandford
(50.8667°N, 2.1667°W)
Time: 23:11:17
(UTC+00:00)

Cosmos 1892 - Pass Details

Date: 09 April 2020
Orbit: 503 x 525 km, 82.5° (Epoch: 27 May)

Event Time Altitude Azimuth Distance (km) Brightness Sun altitude
Rises 19:54:34 0° 0° (N) 2,676 6.7 -9.6°
Reaches altitude 10° 19:57:08 10° 17° (NNE) 1,782 5.5 -10.0°
Maximum altitude 20:00:11 21° 68° (ENE) 1,221 4.2 -10.4°
Enters shadow 20:02:07 15° 106° (ESE) 1,472 4.4 -10.7°
